• In Deutschland
  • Länderverzeichnis
  • Für 7 Tage
  • Wassertemperatur
  • Satellitenkarten
  • Wetterkarte
  • Widgets
  • user-avatar
    Anmelden

    Stündliche Wetter Soltau

    Heute, 11 Dezember, Montag

    Zeit Temperatur Niederschläge Wind Luftdruck Luftfeuchtigkeit
    00:00 -1°C° 0,8 mm 5 m/S 726 mmHg 93%
    01:00 -1°C° 0 mm 5 m/S 726 mmHg 93%
    02:00 -1°C° 0,1 mm 5 m/S 727 mmHg 93%
    03:00 -1°C° 0,1 mm 5 m/S 728 mmHg 92%
    04:00 -2°C° 0,1 mm 5 m/S 729 mmHg 91%
    05:00 -2°C° 0 mm 4 m/S 730 mmHg 92%
    06:00 -3°C° 0 mm 4 m/S 731 mmHg 92%
    07:00 -2°C° 0 mm 3 m/S 732 mmHg 93%
    08:00 -2°C° 0 mm 2 m/S 733 mmHg 93%
    09:00 0°C° 0 mm 1 m/S 733 mmHg 93%
    10:00 -1°C° 0 mm 0 m/S 733 mmHg 93%
    11:00 0°C° 0 mm 1 m/S 733 mmHg 93%
    12:00 +1°C° 0 mm 1 m/S 733 mmHg 92%
    13:00 +1°C° 0 mm 1 m/S 733 mmHg 92%
    14:00 -1°C° 0,4 mm 2 m/S 733 mmHg 92%
    15:00 -1°C° 0,4 mm 3 m/S 732 mmHg 93%
    16:00 -2°C° 0,4 mm 4 m/S 732 mmHg 93%
    17:00 -2°C° 0,5 mm 4 m/S 731 mmHg 94%
    18:00 -2°C° 0,5 mm 4 m/S 731 mmHg 94%
    19:00 0°C° 0,5 mm 3 m/S 731 mmHg 94%
    20:00 0°C° 0,4 mm 3 m/S 731 mmHg 95%
    21:00 0°C° 0,4 mm 3 m/S 731 mmHg 96%
    22:00 0°C° 0,4 mm 3 m/S 731 mmHg 97%
    23:00 +1°C° 0,4 mm 3 m/S 731 mmHg 97%

    Morgen, 12 Dezember, Dienstag

    Zeit Temperatur Niederschläge Wind Luftdruck Luftfeuchtigkeit
    00:00 +1°C° 0,4 mm 3 m/S 731 mmHg 97%
    01:00 +2°C° 0,4 mm 3 m/S 731 mmHg 97%
    02:00 +2°C° 0,6 mm 3 m/S 731 mmHg 96%
    03:00 +2°C° 0,6 mm 3 m/S 731 mmHg 95%
    04:00 +2°C° 0,6 mm 3 m/S 731 mmHg 94%
    05:00 +1°C° 0,1 mm 4 m/S 732 mmHg 95%
    06:00 0°C° 0,1 mm 4 m/S 733 mmHg 96%
    07:00 0°C° 0,1 mm 5 m/S 734 mmHg 96%
    08:00 0°C° 0,2 mm 5 m/S 736 mmHg 95%
    09:00 0°C° 0,2 mm 5 m/S 738 mmHg 94%
    10:00 -1°C° 0,2 mm 6 m/S 740 mmHg 93%
    11:00 -1°C° 0,5 mm 6 m/S 741 mmHg 93%
    12:00 0°C° 0,5 mm 5 m/S 742 mmHg 93%
    13:00 0°C° 0,5 mm 5 m/S 744 mmHg 93%
    14:00 0°C° 0,3 mm 5 m/S 745 mmHg 92%
    15:00 0°C° 0,3 mm 5 m/S 746 mmHg 92%
    16:00 0°C° 0,3 mm 4 m/S 747 mmHg 92%
    17:00 -1°C° 0,1 mm 4 m/S 748 mmHg 91%
    18:00 -1°C° 0,1 mm 4 m/S 749 mmHg 91%
    19:00 -1°C° 0,1 mm 4 m/S 751 mmHg 90%
    20:00 -1°C° 0 mm 4 m/S 751 mmHg 90%
    21:00 -2°C° 0 mm 4 m/S 752 mmHg 90%
    22:00 -2°C° 0 mm 4 m/S 752 mmHg 90%
    23:00 -2°C° 0 mm 5 m/S 752 mmHg 90%

    übermorgen, 13 Dezember, Mittwoch

    Zeit Temperatur Niederschläge Wind Luftdruck Luftfeuchtigkeit
    00:00 -1°C° 0 mm 5 m/S 752 mmHg 91%
    01:00 -1°C° 0 mm 5 m/S 752 mmHg 91%
    02:00 -1°C° 0 mm 5 m/S 752 mmHg 90%
    03:00 -2°C° 0 mm 5 m/S 752 mmHg 89%
    04:00 -2°C° 0 mm 5 m/S 752 mmHg 87%
    05:00 -3°C° 0 mm 6 m/S 751 mmHg 86%
    06:00 -2°C° 0 mm 6 m/S 751 mmHg 84%
    07:00 -2°C° 0 mm 6 m/S 750 mmHg 83%
    08:00 -2°C° 0,1 mm 7 m/S 749 mmHg 82%
    09:00 -1°C° 0,1 mm 7 m/S 749 mmHg 82%
    10:00 -1°C° 0,1 mm 7 m/S 748 mmHg 82%
    11:00 -1°C° 1 mm 7 m/S 747 mmHg 83%
    12:00 0°C° 1 mm 7 m/S 746 mmHg 85%
    13:00 0°C° 1 mm 7 m/S 745 mmHg 86%
    14:00 0°C° 1,2 mm 7 m/S 744 mmHg 88%
    15:00 0°C° 1,2 mm 7 m/S 743 mmHg 89%
    16:00 +2°C° 1,2 mm 7 m/S 743 mmHg 90%
    17:00 +2°C° 0,5 mm 6 m/S 743 mmHg 91%
    18:00 +2°C° 0,5 mm 6 m/S 742 mmHg 93%
    19:00 +2°C° 0,5 mm 5 m/S 742 mmHg 95%
    20:00 +2°C° 0,1 mm 5 m/S 742 mmHg 94%
    21:00 +2°C° 0,1 mm 5 m/S 741 mmHg 94%
    22:00 +2°C° 0,1 mm 5 m/S 740 mmHg 94%
    23:00 +2°C° 0,6 mm 5 m/S 740 mmHg 94%

    14 Dezember, Donnerstag

    Zeit Temperatur Niederschläge Wind Luftdruck Luftfeuchtigkeit
    00:00 +3°C° 0,6 mm 5 m/S 739 mmHg 93%
    01:00 +3°C° 0,6 mm 6 m/S 738 mmHg 93%
    02:00 +3°C° 0,4 mm 5 m/S 738 mmHg 93%
    03:00 +3°C° 0,4 mm 4 m/S 737 mmHg 93%
    04:00 +3°C° 0,4 mm 4 m/S 737 mmHg 94%
    05:00 +1°C° 0,1 mm 4 m/S 737 mmHg 93%
    06:00 +1°C° 0,1 mm 5 m/S 736 mmHg 92%
    07:00 +1°C° 0,1 mm 5 m/S 736 mmHg 92%
    08:00 +1°C° 0,6 mm 6 m/S 736 mmHg 85%
    09:00 +1°C° 0,6 mm 6 m/S 736 mmHg 78%
    10:00 0°C° 0,6 mm 7 m/S 736 mmHg 72%
    11:00 0°C° 0 mm 7 m/S 736 mmHg 70%
    12:00 +2°C° 0 mm 7 m/S 736 mmHg 69%
    13:00 +2°C° 0 mm 7 m/S 736 mmHg 68%
    14:00 0°C° 0,1 mm 7 m/S 736 mmHg 70%
    15:00 +1°C° 0,1 mm 6 m/S 736 mmHg 73%
    16:00 +1°C° 0,1 mm 6 m/S 736 mmHg 75%
    17:00 -1°C° 0 mm 6 m/S 736 mmHg 76%
    18:00 -1°C° 0 mm 6 m/S 736 mmHg 78%
    19:00 -1°C° 0 mm 6 m/S 736 mmHg 79%
    20:00 -1°C° 0 mm 6 m/S 736 mmHg 79%
    21:00 -1°C° 0 mm 6 m/S 736 mmHg 80%
    22:00 -1°C° 0 mm 6 m/S 736 mmHg 80%
    23:00 -1°C° 0 mm 6 m/S 737 mmHg 81%

    15 Dezember, Freitag

    Zeit Temperatur Niederschläge Wind Luftdruck Luftfeuchtigkeit
    00:00 -1°C° 0 mm 6 m/S 737 mmHg 82%
    01:00 -1°C° 0 mm 6 m/S 738 mmHg 83%
    02:00 -1°C° 0 mm 5 m/S 738 mmHg 84%
    03:00 -1°C° 0 mm 5 m/S 738 mmHg 85%
    04:00 -1°C° 0 mm 5 m/S 738 mmHg 86%
    05:00 -1°C° 0 mm 5 m/S 738 mmHg 87%
    06:00 -1°C° 0 mm 4 m/S 739 mmHg 87%
    07:00 -2°C° 0 mm 4 m/S 739 mmHg 88%
    08:00 -1°C° 0 mm 4 m/S 739 mmHg 87%
    09:00 -1°C° 0 mm 4 m/S 739 mmHg 85%
    10:00 -1°C° 0 mm 5 m/S 739 mmHg 84%
    11:00 0°C° 0,2 mm 4 m/S 739 mmHg 85%
    12:00 0°C° 0,2 mm 4 m/S 739 mmHg 85%
    13:00 +1°C° 0,2 mm 4 m/S 739 mmHg 86%
    14:00 +2°C° 0,3 mm 3 m/S 739 mmHg 88%
    15:00 +2°C° 0,3 mm 3 m/S 739 mmHg 90%
    16:00 +2°C° 0,3 mm 3 m/S 738 mmHg 92%
    17:00 +1°C° 0 mm 3 m/S 739 mmHg 92%
    18:00 0°C° 0 mm 4 m/S 739 mmHg 92%
    19:00 0°C° 0 mm 4 m/S 740 mmHg 92%
    20:00 0°C° 0,1 mm 5 m/S 740 mmHg 89%
    21:00 0°C° 0,1 mm 5 m/S 741 mmHg 86%
    22:00 -1°C° 0,1 mm 6 m/S 741 mmHg 83%
    23:00 -1°C° 0,2 mm 6 m/S 742 mmHg 84%

    16 Dezember, Samstag

    Zeit Temperatur Niederschläge Wind Luftdruck Luftfeuchtigkeit
    00:00 -1°C° 0,2 mm 6 m/S 742 mmHg 84%
    01:00 -1°C° 0,2 mm 6 m/S 743 mmHg 85%
    02:00 0°C° 0,1 mm 5 m/S 743 mmHg 86%
    03:00 0°C° 0,1 mm 5 m/S 744 mmHg 87%
    04:00 0°C° 0,1 mm 5 m/S 744 mmHg 88%
    05:00 0°C° 0,1 mm 5 m/S 745 mmHg 88%
    06:00 0°C° 0,1 mm 5 m/S 745 mmHg 87%
    07:00 0°C° 0,1 mm 5 m/S 746 mmHg 87%
    08:00 0°C° 0,1 mm 5 m/S 746 mmHg 86%
    09:00 0°C° 0,1 mm 5 m/S 747 mmHg 85%
    10:00 0°C° 0,1 mm 5 m/S 747 mmHg 84%
    11:00 +1°C° 0 mm 5 m/S 748 mmHg 81%
    12:00 +1°C° 0 mm 6 m/S 748 mmHg 78%
    13:00 +2°C° 0 mm 6 m/S 748 mmHg 75%
    14:00 +2°C° 0 mm 6 m/S 748 mmHg 76%
    15:00 +1°C° 0 mm 5 m/S 749 mmHg 77%
    16:00 +1°C° 0 mm 5 m/S 749 mmHg 79%
    17:00 +1°C° 0,1 mm 5 m/S 749 mmHg 80%
    18:00 0°C° 0,1 mm 5 m/S 750 mmHg 82%
    19:00 0°C° 0,1 mm 5 m/S 750 mmHg 83%
    20:00 0°C° 0,1 mm 5 m/S 751 mmHg 84%
    21:00 0°C° 0,1 mm 5 m/S 751 mmHg 86%
    22:00 -1°C° 0,1 mm 4 m/S 752 mmHg 87%
    23:00 -1°C° 0 mm 4 m/S 752 mmHg 89%
    Mehr zeigen